Epoch 2006 Sept. 22.0 TT = JDT 2454000.5 T 2006 Sept. 29.31016 TT MPC q 2.2656460 (2000.0) P Q z -0.0009956 Peri. 359.95975 -0.66783551 +0.51857654 +/-0.0000039 Node 228.12782 -0.68268954 -0.71256244 e 1.0022557 Incl. 45.80950 -0.29653115 +0.47258136 From 176 observations 2006 Apr. 23-2007 Aug. 7, mean residual 0".4.
m1 = 11.0 + 5 logΔ + 10.0 log r